"Pseudo-MPEC" for C5YKDG2

Created 2021 Sep 16 11:07:06 UT using Find_Orb

Click here for an explanation of pseudo-MPECs

 
 Astrometry: 
     C5YKDG2  C2021 09 13.29263300 46 31.67 -09 09 58.1    ~9D7b 21.47GVNEOCPG96
     C5YKDG2  C2021 09 13.29742200 46 31.32 -09 10 01.1    ~9D7b 21.64GVNEOCPG96
     C5YKDG2  C2021 09 13.30220900 46 31.00 -09 10 03.3    ~9D7b 21.06GVNEOCPG96
     C5YKDG2  C2021 09 13.30698400 46 30.65 -09 10 05.2    ~9D7b 22.30GVNEOCPG96
     C5YKDG2  C2021 09 13.38436600 46 25.09 -09 10 43.0    ~9D9b 22.00GVNEOCPG96
     C5YKDG2  C2021 09 13^jh^N:o@b5J#ovg!G(rY4]QVQwVAstrometryysni;R0HgPeC?iFF52
     C5YKDG2  C2021 09 13.38797300 46 24.79 -09 10 45.2    ~9D9b 21.56GVNEOCPG96
     C5YKDG2  C2021 09 13.39235700 46 24.45 -09 10 46.9    ~9D9b 21.84GVNEOCPG96
     C5YKDG2  C2021 09 134eg5fJaE8redacted;EPnPMJO!sKkLMXWl!v\!1!hhl3*;ykk#tFF52
     C5YKDG2  C2021 09 13vmc!^5(pluKiWLTXo.Fa$4F?,E0w+xclickRRaS7P\-CWYfh_t.\F52
     C5YKDG2 KC2021 09 14.30906600 45 20.92 -09 18 08.2    ~9E87 21.93GVNEOCPG96
     C5YKDG2 KC2021 09 14.31250300 45 20.61 -09 18 09.5    ~9E87 22.41GVNEOCPG96
     C5YKDG2 KC2021 09 14.31590600 45 20.44 -09 18 11.5    ~9E87 21.37GVNEOCPG96
     C5YKDG2 |C2021 09 14!Ja5puokrqPJJ(1W?bm'_$`Klyym.[nXB]N#Xwn*nDUrLf*F(wMg807
     C5YKDG2 |C2021 09 143lHfk;tMcRIFZLXW@crRk867A4bj+UlqF.lMKxQL3#*jxGJpsW;2807
     C5YKDG2 |C2021 09 15m,-[Jo%UJrMKZsx+q)W*aO9cS/70KIXWV9(K?]P7d!Khere]SV/]807
     C5YKDG2 |C2021 09 15h9D*B]GvF^`q-O=X1iQH?B3tmpMI%dks.uoEwEl[,cCJl`\W)3/9807
     C5YKDG2 |C2021 09 15vc$ChqpQmevj1B%=,HARc$0lfork6I!)yWFexplanation#]iFU9807

Station data:
(807) Cerro Tololo Observatory, La Serena  (S30.169136 W70.805900)  Chile.
(F52) Pan-STARRS 2, Haleakala  (N20.707384 W156.255910)  US/Hawaii. 1.8-m
   Ritchey-Chrétien + CCD.
(G96) Mt. Lemmon Survey  (N32.442754 W110.788720)  US/Arizona.  Observers T.
   A. Pruyne, B. M. Africano, E. J. Christensen, G. A. Farneth, D. C. Fuls,
   A. R. Gibbs, A. D. Grauer, H. Gröller, J. A. Johnson, R. A. Kowalski, S.
   M. Larson, G. J. Leonard, D. Rankin, R. L. Seaman, F. C. Shelly. 1.5-m
   reflector + 10K CCD.

Orbital elements:  C5YKDG2
   Perihelion 2021 Apr 4.723104 +/- 5.65437 TT = 17:21:16 (JD 2459309.223104)
Epoch 2021 Sep 15.0 TT = JDT 2459472.5   Earth MOID: 0.3187   Ma: 0.0266
M  53.15220627 +/- 2.9323888        (J2000 ecliptic)          AutoNEOCP
n   0.32553415 +/- 0.00916761       Peri.  172.39000 +/- 1.0001440
a   2.09285115 +/- 0.0393017        Node    91.87234 +/- 1.1676643
e   0.3624777 +/- 0.01675           Incl.    6.18195 +/- 0.0842390
P   3.03                   H 20.2   G  0.15   U  9.6  
q 1.33423910 +/- 0.0100939    Q 2.85146319 +/- 0.0862142
From 18 observations 2021 Sept. 13-15 (47.9 hr); mean residual 0".26
Residuals in arcseconds: 
210913 G96  .37-  .39+    210913 G96  .21+  .34-    210914 G96  .48+  .24-    
210913 G96  .43-  .27-    210913 G96  .11-  .08+    210914 807  .05+  .07-    
210913 G96  .04-  .13-    210913 F52  .03-  .05+    210914 807  .00   .07+    
210913 G96  .10-  .30+    210913 F52  .06+  .04-    210915 807  .03+  .02+    
210913 G96  .77+  .12+    210914 G96  .15+  .22-    210915 807  .08-  .12+    
210913 F52  .04+  .01+    210914 G96  .70-  .13+    210915 807  .01+  .01-    

Ephemerides (geocentric):
Date (UTC) HH   RA              Dec         delta   r     elong  mag " sig PA
---- -- -- --  -------------   -----------  ------ ------ -----  --- ---- ---
2021 09 16 11  00 42 48.079   -09 34 45.90  .89590 1.8779 162.0 22.0 .264 135
2021 09 16 12  00 42 45.084   -09 35 04.93  .89601 1.8781 162.1 22.0 .281 136
2021 09 16 13  00 42 42.086   -09 35 23.93  .89612 1.8783 162.1 22.0 .298 136
2021 09 16 14  00 42 39.088   -09 35 42.92  .89623 1.8785 162.1 22.0 .316 137
2021 09 16 15  00 42 36.088   -09 36 01.89  .89634 1.8787 162.2 22.0 .334 137
2021 09 16 16  00 42 33.088   -09 36 20.85  .89645 1.8789 162.2 22.0 .352 137
2021 09 16 17  00 42 30.085   -09 36 39.78  .89656 1.8791 162.2 22.0 .371 138
2021 09 16 18  00 42 27.082   -09 36 58.70  .89667 1.8793 162.3 22.0 .390 138
2021 09 16 19  00 42 24.078   -09 37 17.60  .89678 1.8795 162.3 22.0 .410 138
2021 09 16 20  00 42 21.072   -09 37 36.48  .89689 1.8797 162.4 22.0 .430 139
2021 09 16 21  00 42 18.065   -09 37 55.34  .89700 1.8799 162.4 22.0 .451 139
2021 09 16 22  00 42 15.058   -09 38 14.18  .89712 1.8801 162.4 22.0 .471 139
2021 09 16 23  00 42 12.048   -09 38 33.01  .89723 1.8802 162.5 22.0 .493 139
2021 09 17 00  00 42 09.038   -09 38 51.82  .89734 1.8804 162.5 22.0 .514 140
2021 09 17 01  00 42 06.027   -09 39 10.60  .89746 1.8806 162.5 22.0 .537 140
2021 09 17 02  00 42 03.014   -09 39 29.37  .89757 1.8808 162.6 22.0 .559 140
2021 09 17 03  00 42 00.001   -09 39 48.12  .89769 1.8810 162.6 21.9 .582 140
2021 09 17 04  00 41 56.986   -09 40 06.86  .89780 1.8812 162.6 21.9 .605 140
2021 09 17 05  00 41 53.970   -09 40 25.57  .89792 1.8814 162.7 21.9 .629 141
2021 09 17 06  00 41 50.953   -09 40 44.27  .89803 1.8816 162.7 21.9 .653 141
2021 09 17 07  00 41 47.935   -09 41 02.94  .89815 1.8818 162.8 21.9 .677 141
2021 09 17 08  00 41 44.916   -09 41 21.60  .89827 1.8820 162.8 21.9 .702 141
2021 09 17 09  00 41 41.896   -09 41 40.24  .89838 1.8822 162.8 21.9 .727 142
2021 09 17 10  00 41 38.875   -09 41 58.86  .89850 1.8824 162.9 21.9 .753 142
2021 09 17 11  00 41 35.852   -09 42 17.46  .89862 1.8825 162.9 21.9 .779 142
2021 09 17 12  00 41 32.829   -09 42 36.04  .89874 1.8827 162.9 21.9 .805 142
2021 09 17 13  00 41 29.805   -09 42 54.60  .89886 1.8829 163.0 21.9 .832 142
2021 09 17 14  00 41 26.779   -09 43 13.14  .89898 1.8831 163.0 21.9 .859 142
2021 09 17 15  00 41 23.753   -09 43 31.67  .89910 1.8833 163.0 21.9 .887 143
2021 09 17 16  00 41 20.726   -09 43 50.17  .89922 1.8835 163.1 21.9 .915 143
2021 09 17 17  00 41 17.697   -09 44 08.66  .89934 1.8837 163.1 21.9 .943 143
2021 09 17 18  00 41 14.668   -09 44 27.12  .89946 1.8839 163.1 21.9 .972 143
2021 09 17 19  00 41 11.637   -09 44 45.57  .89958 1.8841 163.2 21.9 1.00 143
2021 09 17 20  00 41 08.606   -09 45 04.00  .89970 1.8843 163.2 21.9 1.03 144
2021 09 17 21  00 41 05.573   -09 45 22.40  .89982 1.8845 163.2 21.9 1.06 144
2021 09 17 22  00 41 02.540   -09 45 40.79  .89994 1.8847 163.3 21.9 1.09 144
2021 09 17 23  00 40 59.506   -09 45 59.16  .90007 1.8848 163.3 21.9 1.12 144
2021 09 18 00  00 40 56.470   -09 46 17.51  .90019 1.8850 163.3 21.9 1.15 144
2021 09 18 01  00 40 53.434   -09 46 35.84  .90031 1.8852 163.4 21.9 1.18 144
2021 09 18 02  00 40 50.397   -09 46 54.15  .90044 1.8854 163.4 21.9 1.22 144
2021 09 18 03  00 40 47.359   -09 47 12.44  .90056 1.8856 163.4 21.9 1.25 145
2021 09 18 04  00 40 44.320   -09 47 30.71  .90068 1.8858 163.5 21.9 1.28 145
2021 09 18 05  00 40 41.280   -09 47 48.95  .90081 1.8860 163.5 21.9 1.31 145
2021 09 18 06  00 40 38.239   -09 48 07.18  .90093 1.8862 163.5 21.9 1.35 145
2021 09 18 07  00 40 35.198   -09 48 25.39  .90106 1.8864 163.6 21.9 1.38 145
2021 09 18 08  00 40 32.155   -09 48 43.58  .90119 1.8866 163.6 21.9 1.41 145
2021 09 18 09  00 40 29.112   -09 49 01.75  .90131 1.8868 163.6 21.9 1.45 146
2021 09 18 10  00 40 26.067   -09 49 19.90  .90144 1.8870 163.7 21.9 1.48 146